QPF
0.00 0.00 0.00 0.00 0.00 0.00 0.00 0.00 0.00 0.00 0.00 0.00 0.00 0.00 0.00 0.00 0.00 0.00 0.00 0.00 0.00 0.00 0.00 0.01 0.02 0.02 0.02 0.01 0.01 0.01 0.02 0.03 0.03 0.03 0.03 0.02 0.02 0.02 0.03 0.02 0.04 0.04 0.05 0.05 0.04 0.04 0.03 0.02 0.01
0.00 0.00 0.00 0.00 0.00 0.00 0.00 0.00 0.00 0.00 0.00 0.00 0.00 0.00 0.00 0.00 0.00 0.00 0.00 0.00 0.00 0.00 0.00 0.01 0.01 0.02 0.02 0.01 0.01 0.01 0.02 0.04 0.03 0.02 0.03 0.03 0.02 0.02 0.02 0.02 0.05 0.05 0.04 0.04 0.03 0.03 0.02 0.01 0.01
0.00 0.00 0.00 0.00 0.00 0.00 0.00 0.00 0.00 0.00 0.00 0.00 0.00 0.00 0.00 0.00 0.00 0.00 0.00 0.00 0.00 0.00 0.00 0.01 0.01 0.02 0.02 0.02 0.02 0.02 0.02 0.03 0.03 0.02 0.03 0.03 0.03 0.02 0.01 0.02 0.04 0.04 0.03 0.02 0.02 0.02 0.01 0.00 0.00
0.00 0.00 0.00 0.00 0.00 0.00 0.00 0.00 0.00 0.00 0.00 0.00 0.00 0.00 0.00 0.00 0.00 0.00 0.00 0.00 0.00 0.00 0.00 0.01 0.01 0.02 0.03 0.02 0.02 0.03 0.03 0.03 0.02 0.02 0.03 0.02 0.03 0.03 0.03 0.03 0.03 0.03 0.03 0.02 0.03 0.02 0.00 0.00 0.00
0.00 0.00 0.00 0.00 0.00 0.00 0.00 0.00 0.00 0.00 0.00 0.00 0.00 0.00 0.00 0.00 0.00 0.00 0.00 0.00 0.00 0.00 0.00 0.01 0.01 0.02 0.03 0.02 0.03 0.03 0.03 0.04 0.03 0.03 0.03 0.03 0.04 0.04 0.03 0.02 0.02 0.02 0.02 0.02 0.03 0.02 0.00 0.00 0.00
0.00 0.00 0.00 0.00 0.00 0.00 0.00 0.00 0.00 0.00 0.00 0.00 0.00 0.00 0.00 0.00 0.00 0.00 0.00 0.00 0.00 0.00 0.00 0.01 0.01 0.02 0.03 0.03 0.04 0.04 0.04 0.03 0.03 0.03 0.03 0.04 0.03 0.03 0.03 0.02 0.03 0.02 0.02 0.02 0.02 0.02 0.01 0.00 0.00
0.00 0.00 0.00 0.00 0.00 0.00 0.00 0.00 0.00 0.00 0.00 0.00 0.00 0.00 0.00 0.00 0.00 0.00 0.00 0.00 0.00 0.00 0.00 0.01 0.01 0.01 0.03 0.03 0.04 0.04 0.05 0.04 0.04 0.03 0.04 0.05 0.04 0.03 0.03 0.03 0.03 0.02 0.02 0.02 0.02 0.02 0.01 0.01 0.00
0.00 0.00 0.00 0.00 0.00 0.00 0.00 0.00 0.00 0.00 0.00 0.00 0.00 0.00 0.00 0.00 0.00 0.00 0.00 0.00 0.00 0.00 0.00 0.01 0.01 0.02 0.03 0.04 0.04 0.04 0.04 0.05 0.04 0.03 0.03 0.04 0.03 0.04 0.03 0.03 0.03 0.02 0.02 0.02 0.02 0.02 0.01 0.01 0.00
0.00 0.00 0.00 0.00 0.00 0.00 0.00 0.00 0.00 0.00 0.00 0.00 0.00 0.00 0.00 0.00 0.00 0.00 0.00 0.00 0.00 0.00 0.01 0.01 0.01 0.01 0.02 0.03 0.03 0.03 0.03 0.03 0.03 0.02 0.03 0.03 0.03 0.03 0.03 0.02 0.02 0.02 0.02 0.01 0.02 0.02 0.01 0.01 0.00
0.00 0.00 0.00 0.00 0.00 0.00 0.00 0.00 0.00 0.00 0.00 0.00 0.00 0.00 0.00 0.00 0.00 0.00 0.00 0.00 0.00 0.00 0.00 0.01 0.01 0.01 0.01 0.02 0.02 0.03 0.03 0.04 0.03 0.03 0.04 0.04 0.04 0.03 0.02 0.02 0.02 0.02 0.02 0.01 0.01 0.01 0.01 0.01 0.00
0.00 0.00 0.00 0.00 0.00 0.00 0.00 0.00 0.00 0.00 0.00 0.00 0.00 0.00 0.00 0.00 0.00 0.00 0.00 0.00 0.00 0.00 0.00 0.01 0.01 0.01 0.01 0.02 0.03 0.03 0.03 0.04 0.03 0.03 0.04 0.05 0.05 0.04 0.03 0.03 0.02 0.03 0.02 0.02 0.01 0.01 0.01 0.01 0.01
0.00 0.00 0.00 0.00 0.00 0.00 0.00 0.00 0.00 0.00 0.00 0.00 0.00 0.00 0.00 0.00 0.00 0.00 0.00 0.00 0.00 0.00 0.00 0.00 0.01 0.02 0.02 0.02 0.02 0.03 0.03 0.03 0.03 0.02 0.03 0.04 0.04 0.04 0.03 0.03 0.03 0.03 0.02 0.01 0.01 0.01 0.01 0.02 0.02
0.00 0.00 0.00 0.00 0.00 0.00 0.00 0.00 0.00 0.00 0.00 0.00 0.00 0.00 0.00 0.00 0.00 0.00 0.00 0.00 0.00 0.00 0.00 0.00 0.01 0.02 0.02 0.02 0.02 0.02 0.03 0.04 0.03 0.03 0.02 0.02 0.03 0.04 0.04 0.03 0.03 0.02 0.02 0.01 0.01 0.01 0.01 0.01 0.02
0.00 0.00 0.00 0.00 0.00 0.00 0.00 0.00 0.00 0.00 0.00 0.00 0.00 0.00 0.00 0.00 0.00 0.00 0.00 0.00 0.00 0.00 0.00 0.01 0.01 0.02 0.03 0.02 0.02 0.02 0.03 0.03 0.04 0.03 0.03 0.02 0.02 0.03 0.04 0.03 0.03 0.02 0.01 0.01 0.01 0.01 0.00 0.01 0.01
0.00 0.00 0.00 0.00 0.00 0.00 0.00 0.00 0.00 0.00 0.00 0.00 0.00 0.00 0.00 0.00 0.00 0.00 0.00 0.01 0.01 0.01 0.01 0.01 0.02 0.02 0.02 0.02 0.02 0.02 0.03 0.03 0.03 0.03 0.03 0.02 0.03 0.04 0.05 0.05 0.04 0.03 0.02 0.01 0.01 0.01 0.01 0.00 0.01
0.00 0.00 0.00 0.00 0.00 0.00 0.00 0.00 0.00 0.00 0.00 0.00 0.00 0.00 0.00 0.00 0.01 0.01 0.01 0.01 0.01 0.01 0.01 0.01 0.02 0.02 0.02 0.02 0.03 0.02 0.02 0.02 0.03 0.02 0.03 0.02 0.02 0.04 0.06 0.06 0.05 0.04 0.03 0.02 0.01 0.01 0.01 0.00 0.00
0.00 0.00 0.00 0.00 0.00 0.00 0.00 0.00 0.00 0.00 0.00 0.00 0.00 0.00 0.00 0.00 0.00 0.01 0.01 0.01 0.01 0.01 0.01 0.01 0.02 0.03 0.03 0.02 0.03 0.03 0.02 0.01 0.01 0.02 0.03 0.03 0.03 0.03 0.04 0.04 0.04 0.03 0.03 0.02 0.02 0.02 0.01 0.01 0.00
0.01 0.01 0.00 0.00 0.00 0.01 0.01 0.01 0.00 0.00 0.00 0.00 0.00 0.00 0.01 0.01 0.00 0.01 0.01 0.01 0.01 0.01 0.01 0.02 0.02 0.02 0.03 0.03 0.03 0.03 0.02 0.01 0.01 0.01 0.02 0.04 0.04 0.04 0.04 0.03 0.03 0.04 0.04 0.03 0.03 0.02 0.02 0.01 0.01
0.01 0.01 0.01 0.00 0.00 0.01 0.01 0.01 0.00 0.00 0.00 0.01 0.01 0.01 0.01 0.01 0.00 0.01 0.01 0.02 0.02 0.01 0.01 0.02 0.02 0.02 0.02 0.02 0.02 0.03 0.02 0.01 0.01 0.02 0.03 0.04 0.04 0.03 0.03 0.03 0.02 0.03 0.03 0.03 0.03 0.03 0.02 0.01 0.01
0.01 0.01 0.01 0.01 0.00 0.01 0.01 0.01 0.01 0.01 0.01 0.01 0.01 0.02 0.02 0.01 0.01 0.01 0.01 0.02 0.02 0.01 0.01 0.02 0.02 0.01 0.01 0.01 0.02 0.02 0.02 0.01 0.01 0.01 0.02 0.03 0.03 0.03 0.03 0.03 0.02 0.02 0.02 0.03 0.03 0.04 0.04 0.03 0.02
0.01 0.02 0.02 0.01 0.00 0.01 0.01 0.01 0.02 0.02 0.02 0.01 0.02 0.03 0.03 0.01 0.01 0.01 0.01 0.01 0.02 0.02 0.02 0.02 0.02 0.01 0.01 0.01 0.02 0.02 0.02 0.02 0.01 0.01 0.01 0.02 0.03 0.02 0.02 0.02 0.02 0.02 0.02 0.02 0.02 0.02 0.03 0.03 0.03
0.01 0.01 0.01 0.01 0.01 0.01 0.01 0.02 0.02 0.02 0.02 0.02 0.02 0.03 0.04 0.02 0.01 0.01 0.01 0.01 0.02 0.02 0.02 0.02 0.02 0.01 0.01 0.01 0.01 0.01 0.01 0.01 0.01 0.01 0.01 0.02 0.04 0.03 0.02 0.02 0.02 0.02 0.02 0.01 0.01 0.01 0.02 0.02 0.03
0.02 0.01 0.01 0.02 0.01 0.01 0.01 0.01 0.02 0.01 0.01 0.01 0.01 0.03 0.05 0.02 0.01 0.01 0.01 0.01 0.02 0.02 0.03 0.02 0.02 0.01 0.01 0.01 0.01 0.01 0.01 0.01 0.01 0.01 0.01 0.01 0.02 0.03 0.03 0.02 0.02 0.02 0.02 0.01 0.01 0.01 0.02 0.02 0.02
0.01 0.02 0.02 0.02 0.03 0.03 0.01 0.01 0.02 0.01 0.01 0.01 0.00 0.01 0.03 0.03 0.01 0.01 0.01 0.01 0.02 0.02 0.03 0.03 0.02 0.02 0.01 0.01 0.01 0.01 0.01 0.01 0.01 0.01 0.01 0.00 0.01 0.02 0.03 0.03 0.03 0.02 0.01 0.01 0.01 0.01 0.01 0.02 0.02
0.01 0.02 0.04 0.04 0.05 0.04 0.02 0.01 0.02 0.01 0.01 0.01 0.01 0.00 0.01 0.03 0.02 0.01 0.01 0.01 0.01 0.01 0.02 0.03 0.02 0.02 0.01 0.01 0.01 0.01 0.01 0.01 0.01 0.01 0.01 0.01 0.01 0.02 0.03 0.03 0.03 0.03 0.02 0.01 0.01 0.02 0.02 0.02 0.02
0.01 0.01 0.03 0.04 0.03 0.02 0.01 0.01 0.01 0.01 0.01 0.00 0.00 0.00 0.00 0.02 0.02 0.01 0.00 0.00 0.00 0.01 0.01 0.02 0.03 0.02 0.02 0.02 0.01 0.01 0.01 0.01 0.01 0.01 0.01 0.01 0.01 0.02 0.03 0.03 0.03 0.03 0.03 0.02 0.01 0.01 0.01 0.01 0.01
0.01 0.01 0.01 0.02 0.02 0.01 0.01 0.01 0.01 0.01 0.00 0.00 0.00 0.00 0.00 0.02 0.03 0.01 0.00 0.00 0.00 0.01 0.01 0.01 0.02 0.02 0.02 0.02 0.02 0.02 0.01 0.01 0.01 0.01 0.01 0.01 0.01 0.02 0.03 0.04 0.04 0.03 0.02 0.02 0.02 0.01 0.01 0.01 0.01
0.01 0.01 0.01 0.03 0.03 0.02 0.01 0.01 0.02 0.01 0.01 0.00 0.00 0.00 0.00 0.01 0.02 0.02 0.01 0.00 0.00 0.01 0.01 0.01 0.01 0.02 0.02 0.02 0.03 0.03 0.03 0.03 0.03 0.02 0.02 0.02 0.02 0.02 0.03 0.04 0.05 0.04 0.04 0.02 0.02 0.01 0.01 0.01 0.01
0.01 0.01 0.02 0.02 0.02 0.02 0.02 0.02 0.01 0.01 0.01 0.01 0.01 0.01 0.01 0.01 0.02 0.01 0.01 0.01 0.01 0.01 0.01 0.01 0.01 0.01 0.02 0.02 0.03 0.04 0.04 0.04 0.04 0.03 0.03 0.03 0.03 0.02 0.03 0.04 0.05 0.05 0.05 0.04 0.03 0.02 0.01 0.01 0.01
0.01 0.01 0.02 0.03 0.02 0.02 0.02 0.02 0.01 0.01 0.01 0.01 0.01 0.01 0.01 0.01 0.02 0.01 0.01 0.01 0.01 0.01 0.01 0.01 0.01 0.01 0.02 0.02 0.03 0.04 0.05 0.05 0.05 0.04 0.03 0.03 0.03 0.03 0.03 0.03 0.04 0.05 0.06 0.05 0.05 0.04 0.02 0.02 0.02
MSLP
1013.31 1013.97 1014.65 1015.22 1015.59 1015.68 1015.51 1015.10 1014.56 1014.01 1013.56 1013.30 1013.29 1013.51 1013.93 1014.47 1015.05 1015.59 1016.05 1016.39 1016.65 1016.86 1017.04 1017.24 1017.48 1017.75 1018.03 1018.30 1018.53 1018.71 1018.85 1018.96 1019.06 1019.19 1019.36 1019.56 1019.80 1020.04 1020.26 1020.44 1020.58 1020.67 1020.73 1020.78 1020.84 1020.90 1020.98 1021.06 1021.12
1013.61 1014.30 1014.95 1015.44 1015.67 1015.61 1015.28 1014.74 1014.12 1013.54 1013.12 1012.95 1013.04 1013.38 1013.90 1014.51 1015.12 1015.65 1016.07 1016.38 1016.60 1016.79 1016.99 1017.24 1017.55 1017.90 1018.27 1018.61 1018.91 1019.14 1019.32 1019.45 1019.57 1019.71 1019.88 1020.09 1020.31 1020.52 1020.71 1020.85 1020.94 1021.00 1021.03 1021.07 1021.12 1021.20 1021.30 1021.39 1021.46
1014.03 1014.68 1015.23 1015.56 1015.61 1015.37 1014.87 1014.22 1013.54 1012.98 1012.64 1012.59 1012.83 1013.31 1013.94 1014.62 1015.26 1015.77 1016.16 1016.41 1016.60 1016.77 1016.97 1017.26 1017.63 1018.05 1018.50 1018.92 1019.28 1019.56 1019.78 1019.94 1020.08 1020.23 1020.41 1020.60 1020.80 1020.98 1021.12 1021.21 1021.26 1021.27 1021.28 1021.31 1021.38 1021.48 1021.60 1021.71 1021.80
1014.53 1015.08 1015.46 1015.60 1015.44 1015.00 1014.36 1013.62 1012.94 1012.44 1012.22 1012.32 1012.72 1013.34 1014.08 1014.82 1015.47 1015.97 1016.30 1016.51 1016.65 1016.80 1017.01 1017.32 1017.73 1018.21 1018.71 1019.19 1019.60 1019.93 1020.18 1020.38 1020.55 1020.71 1020.89 1021.08 1021.26 1021.41 1021.52 1021.57 1021.58 1021.57 1021.57 1021.59 1021.67 1021.79 1021.93 1022.07 1022.17
1015.00 1015.41 1015.61 1015.54 1015.19 1014.59 1013.84 1013.08 1012.43 1012.03 1011.96 1012.21 1012.76 1013.51 1014.33 1015.12 1015.77 1016.23 1016.52 1016.68 1016.78 1016.91 1017.11 1017.43 1017.87 1018.38 1018.92 1019.43 1019.88 1020.24 1020.52 1020.74 1020.93 1021.12 1021.32 1021.51 1021.69 1021.84 1021.93 1021.96 1021.96 1021.94 1021.93 1021.96 1022.05 1022.18 1022.34 1022.50 1022.61
1015.34 1015.61 1015.64 1015.40 1014.90 1014.20 1013.42 1012.68 1012.12 1011.85 1011.92 1012.32 1012.99 1013.83 1014.70 1015.49 1016.12 1016.55 1016.79 1016.91 1016.99 1017.09 1017.30 1017.62 1018.07 1018.59 1019.14 1019.65 1020.11 1020.48 1020.78 1021.03 1021.25 1021.47 1021.69 1021.91 1022.11 1022.27 1022.37 1022.42 1022.42 1022.41 1022.40 1022.44 1022.53 1022.66 1022.82 1022.97 1023.09
1015.47 1015.62 1015.52 1015.17 1014.60 1013.88 1013.14 1012.49 1012.05 1011.92 1012.12 1012.63 1013.38 1014.25 1015.13 1015.89 1016.48 1016.87 1017.08 1017.17 1017.24 1017.35 1017.55 1017.88 1018.33 1018.84 1019.38 1019.88 1020.33 1020.70 1021.00 1021.26 1021.51 1021.76 1022.02 1022.28 1022.52 1022.71 1022.85 1022.92 1022.95 1022.95 1022.96 1023.00 1023.08 1023.19 1023.33 1023.46 1023.57
1015.36 1015.42 1015.25 1014.87 1014.32 1013.66 1013.02 1012.50 1012.21 1012.21 1012.51 1013.08 1013.85 1014.70 1015.53 1016.24 1016.77 1017.12 1017.31 1017.41 1017.49 1017.63 1017.86 1018.20 1018.65 1019.15 1019.66 1020.13 1020.55 1020.91 1021.21 1021.48 1021.75 1022.04 1022.33 1022.64 1022.92 1023.16 1023.34 1023.45 1023.51 1023.53 1023.55 1023.58 1023.63 1023.71 1023.81 1023.91 1023.99
1015.05 1015.06 1014.89 1014.55 1014.08 1013.55 1013.05 1012.69 1012.53 1012.62 1012.98 1013.55 1014.28 1015.06 1015.80 1016.43 1016.91 1017.23 1017.43 1017.56 1017.70 1017.88 1018.16 1018.53 1018.99 1019.48 1019.96 1020.41 1020.81 1021.14 1021.44 1021.72 1022.00 1022.31 1022.65 1022.98 1023.31 1023.59 1023.81 1023.96 1024.04 1024.08 1024.10 1024.11 1024.13 1024.18 1024.23 1024.29 1024.34
1014.62 1014.64 1014.50 1014.24 1013.89 1013.52 1013.18 1012.96 1012.90 1013.05 1013.40 1013.92 1014.55 1015.22 1015.86 1016.40 1016.83 1017.15 1017.38 1017.58 1017.80 1018.06 1018.41 1018.83 1019.30 1019.79 1020.27 1020.70 1021.07 1021.40 1021.69 1021.97 1022.28 1022.60 1022.96 1023.32 1023.67 1023.97 1024.22 1024.39 1024.49 1024.54 1024.56 1024.55 1024.55 1024.56 1024.57 1024.60 1024.63
1014.20 1014.24 1014.17 1014.01 1013.79 1013.55 1013.34 1013.22 1013.22 1013.37 1013.67 1014.09 1014.60 1015.13 1015.66 1016.13 1016.53 1016.86 1017.16 1017.44 1017.76 1018.12 1018.55 1019.03 1019.53 1020.04 1020.52 1020.94 1021.32 1021.64 1021.94 1022.24 1022.56 1022.90 1023.26 1023.62 1023.97 1024.29 1024.54 1024.72 1024.83 1024.89 1024.90 1024.90 1024.88 1024.87 1024.86 1024.87 1024.90
1013.90 1013.95 1013.94 1013.87 1013.75 1013.61 1013.49 1013.41 1013.42 1013.52 1013.73 1014.03 1014.40 1014.81 1015.24 1015.65 1016.04 1016.42 1016.78 1017.17 1017.59 1018.05 1018.55 1019.09 1019.63 1020.16 1020.65 1021.10 1021.49 1021.84 1022.17 1022.49 1022.82 1023.17 1023.53 1023.89 1024.22 1024.52 1024.77 1024.95 1025.06 1025.13 1025.16 1025.16 1025.15 1025.15 1025.15 1025.17 1025.21
1013.76 1013.83 1013.85 1013.83 1013.76 1013.67 1013.57 1013.49 1013.45 1013.48 1013.58 1013.77 1014.02 1014.34 1014.70 1015.09 1015.50 1015.92 1016.36 1016.83 1017.32 1017.86 1018.41 1018.99 1019.57 1020.12 1020.64 1021.12 1021.55 1021.95 1022.32 1022.68 1023.04 1023.40 1023.75 1024.09 1024.41 1024.68 1024.91 1025.08 1025.21 1025.30 1025.35 1025.39 1025.42 1025.45 1025.49 1025.54 1025.61
1013.80 1013.86 1013.88 1013.86 1013.79 1013.69 1013.57 1013.44 1013.35 1013.30 1013.32 1013.43 1013.62 1013.90 1014.24 1014.63 1015.07 1015.53 1016.02 1016.53 1017.06 1017.61 1018.18 1018.76 1019.34 1019.91 1020.46 1020.98 1021.47 1021.94 1022.37 1022.79 1023.18 1023.56 1023.91 1024.24 1024.53 1024.78 1024.99 1025.16 1025.30 1025.42 1025.53 1025.62 1025.72 1025.81 1025.91 1026.02 1026.14
1013.92 1013.97 1013.97 1013.92 1013.81 1013.67 1013.50 1013.33 1013.18 1013.10 1013.09 1013.19 1013.38 1013.67 1014.04 1014.46 1014.93 1015.41 1015.90 1016.39 1016.89 1017.40 1017.92 1018.45 1019.01 1019.57 1020.14 1020.72 1021.28 1021.82 1022.33 1022.81 1023.26 1023.66 1024.01 1024.33 1024.60 1024.83 1025.04 1025.22 1025.38 1025.55 1025.71 1025.88 1026.05 1026.23 1026.41 1026.59 1026.77
1014.05 1014.07 1014.03 1013.93 1013.79 1013.60 1013.40 1013.21 1013.07 1013.01 1013.05 1013.21 1013.47 1013.83 1014.27 1014.73 1015.21 1015.67 1016.11 1016.52 1016.91 1017.30 1017.71 1018.15 1018.64 1019.18 1019.76 1020.38 1021.01 1021.63 1022.22 1022.78 1023.27 1023.70 1024.07 1024.38 1024.64 1024.87 1025.07 1025.27 1025.47 1025.68 1025.91 1026.15 1026.41 1026.67 1026.93 1027.17 1027.41
1014.06 1014.06 1014.00 1013.87 1013.70 1013.51 1013.32 1013.18 1013.11 1013.15 1013.32 1013.62 1014.02 1014.49 1015.01 1015.52 1015.98 1016.37 1016.69 1016.95 1017.17 1017.38 1017.62 1017.93 1018.32 1018.81 1019.39 1020.04 1020.72 1021.42 1022.09 1022.71 1023.25 1023.72 1024.10 1024.41 1024.67 1024.89 1025.10 1025.32 1025.55 1025.81 1026.10 1026.41 1026.73 1027.06 1027.39 1027.69 1027.97
1013.92 1013.91 1013.84 1013.72 1013.57 1013.43 1013.32 1013.29 1013.38 1013.61 1013.98 1014.47 1015.05 1015.67 1016.26 1016.79 1017.20 1017.48 1017.63 1017.67 1017.67 1017.66 1017.70 1017.84 1018.12 1018.55 1019.10 1019.77 1020.49 1021.24 1021.97 1022.64 1023.22 1023.71 1024.10 1024.42 1024.68 1024.90 1025.12 1025.35 1025.62 1025.91 1026.24 1026.60 1026.97 1027.35 1027.72 1028.06 1028.38
1013.63 1013.63 1013.59 1013.52 1013.45 1013.41 1013.45 1013.62 1013.93 1014.40 1015.01 1015.74 1016.51 1017.26 1017.92 1018.43 1018.75 1018.87 1018.81 1018.61 1018.35 1018.11 1017.94 1017.92 1018.08 1018.43 1018.95 1019.61 1020.36 1021.14 1021.90 1022.59 1023.19 1023.68 1024.08 1024.40 1024.66 1024.89 1025.12 1025.37 1025.65 1025.96 1026.32 1026.70 1027.09 1027.49 1027.88 1028.24 1028.57
1013.24 1013.28 1013.30 1013.32 1013.37 1013.50 1013.76 1014.16 1014.74 1015.48 1016.36 1017.31 1018.26 1019.12 1019.81 1020.26 1020.46 1020.39 1020.10 1019.65 1019.15 1018.67 1018.32 1018.14 1018.19 1018.47 1018.95 1019.60 1020.34 1021.12 1021.87 1022.56 1023.15 1023.63 1024.02 1024.34 1024.60 1024.84 1025.08 1025.33 1025.63 1025.95 1026.31 1026.69 1027.08 1027.47 1027.86 1028.23 1028.57
1012.87 1012.95 1013.05 1013.19 1013.41 1013.74 1014.23 1014.90 1015.76 1016.77 1017.89 1019.04 1020.12 1021.03 1021.71 1022.08 1022.12 1021.85 1021.34 1020.67 1019.95 1019.29 1018.78 1018.48 1018.44 1018.66 1019.10 1019.71 1020.41 1021.16 1021.88 1022.53 1023.09 1023.55 1023.92 1024.22 1024.49 1024.73 1024.99 1025.26 1025.56 1025.88 1026.23 1026.60 1026.97 1027.34 1027.71 1028.06 1028.40
1012.63 1012.75 1012.93 1013.20 1013.58 1014.13 1014.86 1015.78 1016.89 1018.13 1019.45 1020.73 1021.89 1022.81 1023.43 1023.68 1023.57 1023.12 1022.42 1021.57 1020.69 1019.90 1019.28 1018.90 1018.80 1018.97 1019.35 1019.90 1020.55 1021.23 1021.89 1022.47 1022.98 1023.40 1023.75 1024.05 1024.33 1024.59 1024.86 1025.15 1025.46 1025.78 1026.12 1026.47 1026.81 1027.16 1027.50 1027.84 1028.17
1012.59 1012.73 1012.98 1013.36 1013.90 1014.63 1015.57 1016.71 1018.02 1019.45 1020.89 1022.25 1023.42 1024.31 1024.84 1024.97 1024.71 1024.12 1023.28 1022.32 1021.35 1020.48 1019.81 1019.38 1019.24 1019.36 1019.68 1020.16 1020.72 1021.31 1021.87 1022.38 1022.82 1023.20 1023.53 1023.83 1024.12 1024.41 1024.72 1025.03 1025.36 1025.69 1026.02 1026.35 1026.67 1026.99 1027.31 1027.62 1027.94
1012.79 1012.93 1013.22 1013.68 1014.34 1015.22 1016.32 1017.62 1019.07 1020.60 1022.11 1023.49 1024.63 1025.45 1025.88 1025.91 1025.54 1024.85 1023.94 1022.93 1021.93 1021.05 1020.37 1019.93 1019.76 1019.82 1020.07 1020.45 1020.91 1021.38 1021.84 1022.25 1022.63 1022.97 1023.28 1023.59 1023.91 1024.24 1024.58 1024.93 1025.28 1025.63 1025.96 1026.28 1026.58 1026.88 1027.17 1027.48 1027.78
1013.21 1013.33 1013.62 1014.12 1014.85 1015.83 1017.03 1018.43 1019.96 1021.54 1023.06 1024.42 1025.50 1026.24 1026.59 1026.53 1026.11 1025.38 1024.46 1023.46 1022.49 1021.65 1020.99 1020.56 1020.36 1020.36 1020.53 1020.79 1021.12 1021.46 1021.80 1022.13 1022.43 1022.73 1023.04 1023.37 1023.72 1024.09 1024.48 1024.87 1025.25 1025.61 1025.94 1026.26 1026.56 1026.84 1027.12 1027.41 1027.70
1013.82 1013.88 1014.15 1014.65 1015.42 1016.44 1017.69 1019.13 1020.68 1022.26 1023.75 1025.05 1026.08 1026.75 1027.04 1026.95 1026.51 1025.81 1024.95 1024.02 1023.13 1022.35 1021.73 1021.31 1021.08 1021.01 1021.06 1021.20 1021.39 1021.60 1021.82 1022.05 1022.29 1022.56 1022.87 1023.21 1023.60 1024.01 1024.43 1024.85 1025.25 1025.62 1025.97 1026.28 1026.57 1026.85 1027.12 1027.39 1027.67
1014.56 1014.55 1014.78 1015.26 1016.02 1017.04 1018.29 1019.73 1021.26 1022.80 1024.24 1025.48 1026.44 1027.07 1027.33 1027.25 1026.87 1026.25 1025.48 1024.67 1023.88 1023.18 1022.62 1022.20 1021.93 1021.77 1021.71 1021.71 1021.76 1021.83 1021.93 1022.07 1022.26 1022.50 1022.80 1023.16 1023.57 1024.00 1024.44 1024.87 1025.28 1025.66 1026.00 1026.31 1026.59 1026.86 1027.13 1027.39 1027.66
1015.40 1015.34 1015.52 1015.97 1016.69 1017.68 1018.90 1020.29 1021.77 1023.24 1024.61 1025.79 1026.70 1027.30 1027.59 1027.56 1027.26 1026.76 1026.13 1025.45 1024.78 1024.17 1023.66 1023.24 1022.92 1022.68 1022.50 1022.36 1022.27 1022.21 1022.21 1022.26 1022.39 1022.60 1022.89 1023.24 1023.65 1024.08 1024.52 1024.94 1025.33 1025.69 1026.01 1026.31 1026.58 1026.84 1027.10 1027.36 1027.62
1016.37 1016.27 1016.41 1016.82 1017.50 1018.44 1019.60 1020.91 1022.31 1023.69 1024.98 1026.09 1026.97 1027.57 1027.88 1027.93 1027.74 1027.37 1026.89 1026.36 1025.81 1025.30 1024.83 1024.41 1024.04 1023.71 1023.41 1023.15 1022.93 1022.77 1022.67 1022.65 1022.72 1022.89 1023.15 1023.48 1023.85 1024.25 1024.65 1025.03 1025.38 1025.70 1025.99 1026.25 1026.51 1026.76 1027.01 1027.27 1027.53
1017.48 1017.38 1017.50 1017.88 1018.51 1019.39 1020.46 1021.68 1022.97 1024.25 1025.44 1026.48 1027.31 1027.91 1028.26 1028.39 1028.31 1028.09 1027.75 1027.35 1026.92 1026.49 1026.06 1025.64 1025.22 1024.82 1024.44 1024.07 1023.75 1023.49 1023.31 1023.23 1023.25 1023.37 1023.58 1023.85 1024.17 1024.51 1024.84 1025.16 1025.44 1025.70 1025.94 1026.17 1026.39 1026.63 1026.88 1027.14 1027.40
Thickness
5692 5696 5699 5692 5678 5672 5676 5690 5699 5699 5698 5700 5702 5701 5696 5689 5683 5672 5675 5683 5683 5682 5680 5679 5680 5680 5680 5680 5680 5680 5680 5680 5681 5681 5681 5682 5682 5682 5683 5684 5684 5685 5686 5687 5688 5688 5689 5689 5689
5689 5694 5690 5681 5668 5663 5675 5688 5690 5692 5694 5696 5697 5696 5692 5683 5680 5674 5675 5678 5679 5678 5676 5675 5675 5676 5675 5675 5675 5676 5675 5676 5676 5676 5676 5677 5677 5678 5678 5679 5679 5680 5680 5681 5682 5683 5683 5684 5684
5686 5689 5678 5671 5667 5667 5675 5686 5685 5689 5692 5691 5686 5687 5682 5676 5674 5671 5672 5674 5674 5673 5672 5671 5671 5671 5671 5671 5670 5671 5671 5671 5671 5671 5671 5672 5672 5673 5673 5673 5674 5674 5675 5676 5677 5677 5678 5678 5679
5681 5676 5672 5664 5664 5674 5679 5682 5684 5683 5684 5684 5681 5674 5672 5670 5670 5668 5669 5669 5669 5668 5667 5666 5666 5666 5666 5666 5665 5666 5665 5666 5666 5666 5666 5667 5667 5667 5668 5668 5669 5669 5670 5670 5671 5671 5672 5673 5674
5674 5666 5657 5656 5663 5673 5679 5682 5682 5676 5676 5676 5675 5667 5661 5661 5664 5663 5663 5664 5663 5663 5661 5660 5660 5661 5661 5661 5660 5660 5660 5660 5661 5660 5661 5661 5661 5662 5662 5662 5663 5663 5664 5665 5665 5666 5667 5668 5668
5661 5660 5650 5651 5661 5671 5675 5679 5678 5672 5671 5671 5668 5661 5653 5655 5656 5656 5657 5658 5658 5657 5656 5654 5654 5655 5655 5655 5655 5655 5655 5655 5655 5655 5655 5656 5656 5656 5657 5657 5657 5658 5659 5659 5660 5660 5661 5662 5663
5653 5651 5649 5655 5657 5663 5669 5673 5668 5665 5662 5662 5665 5656 5649 5648 5649 5650 5650 5651 5651 5650 5650 5649 5648 5648 5649 5649 5649 5649 5649 5649 5650 5650 5649 5650 5650 5650 5651 5651 5651 5652 5653 5653 5654 5655 5655 5656 5658
5654 5648 5648 5652 5653 5656 5663 5665 5662 5658 5654 5660 5659 5650 5643 5641 5643 5643 5643 5643 5643 5643 5643 5642 5642 5642 5642 5642 5642 5642 5642 5643 5643 5643 5643 5643 5644 5644 5645 5645 5645 5646 5647 5647 5648 5649 5649 5650 5652
5651 5636 5638 5645 5648 5650 5655 5653 5652 5653 5648 5647 5645 5640 5639 5637 5636 5634 5634 5634 5634 5635 5635 5636 5636 5635 5635 5635 5635 5635 5635 5636 5636 5636 5637 5637 5638 5638 5638 5638 5639 5640 5640 5641 5642 5642 5643 5644 5646
5637 5628 5636 5642 5645 5643 5645 5644 5642 5640 5636 5633 5632 5630 5629 5628 5627 5626 5625 5625 5625 5626 5628 5629 5629 5629 5629 5628 5628 5628 5628 5628 5629 5630 5630 5631 5631 5631 5631 5631 5632 5633 5633 5634 5635 5636 5637 5638 5640
5631 5628 5634 5635 5637 5636 5634 5633 5635 5631 5624 5626 5625 5621 5620 5619 5618 5618 5618 5619 5619 5619 5620 5621 5622 5622 5622 5622 5621 5621 5621 5622 5622 5622 5624 5624 5624 5624 5624 5624 5625 5626 5627 5627 5628 5629 5630 5632 5633
5622 5624 5627 5625 5625 5624 5623 5623 5621 5620 5619 5622 5622 5618 5613 5611 5611 5610 5611 5612 5612 5611 5612 5613 5614 5614 5615 5615 5614 5614 5614 5615 5615 5615 5616 5617 5617 5617 5617 5617 5618 5619 5619 5620 5621 5622 5623 5625 5626
5613 5613 5616 5615 5615 5614 5612 5611 5610 5609 5612 5613 5613 5609 5605 5604 5604 5604 5604 5604 5604 5604 5604 5605 5606 5606 5607 5607 5607 5607 5607 5607 5607 5608 5609 5610 5610 5610 5610 5610 5610 5611 5612 5612 5613 5614 5616 5617 5618
5607 5606 5605 5606 5605 5605 5600 5600 5599 5601 5603 5602 5601 5598 5598 5597 5597 5596 5596 5596 5596 5596 5596 5597 5598 5598 5599 5599 5600 5599 5599 5599 5599 5600 5600 5601 5602 5602 5602 5603 5603 5603 5604 5604 5605 5606 5607 5608 5609
5597 5592 5594 5596 5597 5595 5589 5586 5590 5595 5595 5592 5592 5591 5590 5590 5590 5589 5589 5589 5589 5589 5589 5589 5590 5590 5590 5590 5591 5591 5590 5590 5590 5591 5591 5592 5593 5593 5594 5594 5595 5595 5595 5596 5597 5598 5599 5599 5600
5586 5581 5579 5588 5588 5585 5576 5578 5586 5588 5586 5583 5583 5582 5581 5581 5581 5581 5581 5581 5582 5581 5581 5581 5582 5581 5581 5581 5582 5581 5581 5581 5581 5581 5582 5583 5584 5584 5585 5585 5585 5586 5586 5586 5587 5588 5588 5588 5589
5572 5570 5574 5575 5580 5577 5569 5571 5575 5579 5578 5576 5575 5574 5572 5571 5572 5572 5573 5574 5574 5574 5573 5572 5572 5572 5572 5572 5572 5571 5571 5571 5571 5572 5572 5573 5574 5575 5575 5576 5576 5576 5576 5577 5578 5578 5578 5577 5577
5560 5564 5568 5566 5569 5566 5560 5561 5565 5567 5568 5565 5563 5562 5561 5561 5561 5562 5563 5564 5565 5565 5565 5564 5563 5563 5562 5562 5561 5561 5560 5560 5561 5562 5563 5563 5564 5565 5565 5566 5566 5567 5567 5567 5567 5567 5567 5567 5567
5556 5555 5555 5558 5560 5556 5553 5553 5554 5554 5554 5551 5549 5548 5547 5548 5549 5549 5550 5552 5553 5554 5555 5554 5554 5553 5553 5552 5551 5551 5550 5550 5551 5552 5552 5552 5553 5554 5555 5556 5556 5556 5556 5556 5557 5557 5556 5555 5556
5544 5542 5543 5542 5543 5542 5542 5544 5544 5542 5540 5539 5537 5535 5536 5537 5537 5537 5537 5538 5539 5541 5542 5543 5543 5543 5543 5542 5542 5541 5540 5540 5541 5542 5542 5542 5542 5544 5544 5545 5545 5545 5546 5546 5546 5546 5545 5544 5545
5533 5530 5530 5527 5525 5529 5526 5527 5530 5531 5530 5529 5528 5526 5526 5526 5525 5525 5525 5525 5525 5527 5530 5532 5532 5532 5531 5531 5530 5530 5529 5529 5529 5530 5531 5531 5531 5532 5533 5533 5534 5534 5535 5535 5534 5534 5534 5533 5533
5519 5523 5521 5516 5507 5508 5517 5506 5520 5521 5518 5518 5515 5514 5514 5514 5515 5514 5513 5513 5513 5514 5516 5518 5519 5520 5520 5520 5519 5519 5519 5519 5519 5519 5520 5520 5520 5521 5522 5522 5522 5523 5523 5523 5523 5523 5523 5522 5521
5507 5509 5508 5505 5500 5496 5505 5496 5506 5511 5507 5507 5505 5504 5503 5503 5503 5503 5502 5501 5501 5501 5502 5504 5505 5507 5508 5508 5507 5507 5508 5508 5508 5508 5508 5508 5509 5509 5510 5509 5510 5511 5512 5512 5512 5511 5511 5511 5511
5496 5496 5496 5493 5487 5480 5495 5488 5492 5494 5498 5499 5496 5493 5492 5491 5492 5491 5490 5490 5489 5489 5489 5490 5491 5493 5494 5495 5496 5496 5497 5497 5496 5496 5497 5497 5497 5497 5497 5498 5498 5499 5499 5500 5500 5499 5499 5499 5500
5483 5476 5471 5472 5470 5477 5490 5481 5482 5484 5486 5484 5482 5481 5480 5479 5478 5479 5477 5477 5478 5477 5477 5477 5478 5479 5480 5482 5483 5484 5485 5486 5485 5486 5486 5486 5485 5485 5486 5486 5486 5486 5487 5488 5488 5487 5487 5488 5488
5469 5470 5461 5459 5469 5475 5471 5468 5470 5473 5471 5470 5470 5470 5469 5466 5465 5466 5466 5465 5465 5465 5465 5465 5465 5466 5467 5468 5470 5472 5473 5474 5474 5474 5474 5474 5474 5474 5474 5474 5474 5474 5474 5475 5475 5475 5475 5476 5476
5459 5457 5461 5453 5452 5452 5461 5462 5461 5460 5458 5457 5455 5454 5452 5451 5451 5452 5453 5453 5453 5453 5453 5453 5453 5454 5454 5455 5457 5459 5460 5462 5462 5462 5462 5462 5462 5462 5462 5462 5462 5462 5462 5462 5463 5463 5463 5463 5464
5447 5447 5440 5440 5441 5446 5460 5458 5453 5444 5444 5443 5441 5439 5438 5438 5438 5438 5439 5440 5441 5441 5441 5442 5442 5442 5442 5443 5444 5446 5448 5449 5450 5450 5450 5451 5451 5450 5450 5450 5450 5450 5450 5450 5451 5451 5451 5451 5451
5432 5432 5430 5431 5435 5437 5440 5444 5442 5440 5436 5430 5428 5427 5426 5424 5424 5424 5425 5426 5427 5428 5428 5428 5428 5429 5430 5431 5432 5433 5434 5435 5436 5437 5438 5438 5438 5438 5438 5438 5438 5437 5438 5438 5438 5438 5439 5439 5439
5420 5419 5417 5415 5419 5424 5425 5427 5425 5424 5421 5419 5415 5414 5413 5411 5411 5411 5412 5412 5413 5414 5414 5414 5415 5415 5416 5418 5419 5419 5421 5421 5422 5424 5425 5425 5425 5425 5425 5425 5425 5425 5425 5425 5425 5425 5426 5426 5426